Location: Hilliard
(41.1377°N, 110.8115°W)
Time: 21:06:28
(UTC+00:00)

ISS - Visible Passes

Search period start: 03 December 2023 00:00
Search period end: 13 December 2023 00:00
Orbit: 416 x 417 km, 51.6° (Epoch: 03 December)

Date Brightness Start Highest point End Pass type
(mag) Time Alt. Az. Time Alt. Az. Time Alt. Az.
03 Dec -3.4 01:50:15 10° NW 01:53:05 60° WNW 01:53:05 60° WNW visible
04 Dec -3.7 01:01:49 10° NW 01:05:07 56° NNE 01:07:15 20° ESE visible
04 Dec -0.5 02:39:19 10° W 02:40:13 14° WSW 02:40:13 14° WSW visible
05 Dec -1.9 01:50:15 10° WNW 01:53:12 29° SW 01:54:43 20° S visible
06 Dec -2.9 01:01:28 10° WNW 01:04:44 52° SW 01:07:59 10° SE visible
07 Dec -0.3 01:51:44 10° WSW 01:52:24 10° SW 01:53:04 10° SW visible
08 Dec -0.7 01:01:34 10° W 01:03:58 18° SW 01:06:22 10° S visible
